Location: Ago
(8.4667°N, 4.4833°E)
Time: 23:20:57
(UTC+00:00)

Intelsat 5-1 Rocket - Pass Details

Date: 18 September 2020
Orbit: 310 x 7605 km, 23.9° (Epoch: 20 October)

Event Time Altitude Azimuth Distance (km) Brightness Sun altitude
Rises 20:01:58 0° 257° (WSW) 8,372 8.7 -35.8°
Reaches altitude 10° 20:10:02 10° 262° (W) 5,928 7.7 -37.7°
Enters shadow 20:23:01 43° 322° (NW) 1,731 4.4 -40.9°
